COSMOS 2251 DEB, 33915

Orbit data source: Space-Track

COSMOS 2251 DEB, 33915 is space debris in LEO originally from a launch on Wed, 16 Jun 1993 UTC launched from the Plesetsk Missile And Space Complex (PKMTR). The debris from Iridium 33, an American commercial communications satellite, has been tracked extensively since its accidental collision with the defunct Russian satellite Cosmos 2251 in 2009. This event, occurring at high speed in low Earth orbit (LEO), generated thousands of pieces of space debris, significantly increasing the risk of further collisions. The Iridium 33 debris cloud has impacted space traffic management and orbital debris mitigation strategies, making it a subject of ongoing study in space situational awareness.

Loading next visibility...
Identifier
33915, 1993-036DU
Orbit
LEO
Country
Flag of CISCIS
Related business
Manufacturer
Unknown
Mission
Spacecraft
Bus & Motor
Unknown
Mass
Unknown
Launch date (UTC)
1993-06-16 (33 years ago)
Launch vehicle
Unknown
Launch site
Plesetsk Missile And Space Complex (PKMTR)
Object type
Payload
Rocket body
Debris
Shape & HBR
Unknown shape, 0.1 m
Radar Cross Section
Small (<0.1 m²)

Expand to show TLE details & history
Last TLE update: 16 hours ago

TLE from 16 hours ago
0 COSMOS 2251 DEB
1 33915U 93036DU  26033.43673791  .00001519  00000-0  50699-3 0  9994
2 33915  74.0446 299.3530 0105131  18.2434  99.2183 14.35272145884996
Epoch: 2026-02-02T10:28Z
TLE epoch observation values (Epoch: 2026-02-02T10:28:54.155Z)
Latitude
57.64756°
Longitude
162.81947°
Altitude
796.322 km
Speed
7.454 km/s
True Right ascension
06h 10m 42s
True Declination
57° 29' 34"
Sunlit
Object was in full shadow at epoch
Visualization orbit readout
Latitude
Unknown
Longitude
Unknown
Altitude
Unknown
Speed
Unknown
Apparent Right ascension
Unknown
Apparent Declination
Unknown
Sunlit
N/A
Visualization observer readout
Local Sidereal Time
04:15:26
Azimuth
Unknown
Elevation
Unknown
Doppler factor
Unknown
Orbital elements
Apogee altitude
846.954 km
Perigee altitude
696.618 km
Semi-major axis
7,149.923 km
Eccentricity
0.01051
Inclination
74.0446°
RAAN
299.353°
Arg. of periapsis
18.2434°
True anomaly
100.40487°
Mean anomaly
99.2183°
Eccentric anomaly
99.81185°
Mean motion
3.58997 °/min
Orbital period
100.28 mins
BSTAR
0.00050699
Loading maneuver chart data...
Computing Atmospheric mass density...

Documentation

Showing up to 5 results
|